This demonstration page uses our WeatherBlox Daily Observations layout. Learn more.

Left ArrowRight Arrow

Hourly Observations for November 24, 2016

Temp ( °F °C ) Dew Point ( °F °C ) Humidity (%) Winds ( mph kmh ) Pressure ( in mb ) Visibility ( mi km ) Precip ( " mm )
12:51 am 00:51 Clear 41 5 30 -1.1 65 65 SW 3 6 30.08 1019 10 16.0934 N/A
1:51 am 01:51 Clear 38 3.3 28 -2.2 68 68 NNE 3 6 30.09 1019 10 16.0934 N/A
2:51 am 02:51 Clear 37 2.8 28 -2.2 70 70 N N/A 30.09 1019 10 16.0934 N/A
3:51 am 03:51 Clear 37 2.8 28 -2.2 70 70 N N/A 30.11 1020 10 16.0934 N/A
4:51 am 04:51 Clear 37 2.8 28 -2.2 70 70 ESE 3 6 30.12 1020 10 16.0934 N/A
5:51 am 05:51 Clear 37 2.8 29 -1.7 73 73 N N/A 30.16 1021 10 16.0934 N/A
6:51 am 06:51 Clear 37 2.8 29 -1.7 73 73 S 5 7 30.18 1022 10 16.0934 N/A
7:51 am 07:51 Sunny 41 5 30 -1.1 65 65 NNE 3 6 30.2 1023 10 16.0934 N/A
8:51 am 08:51 Sunny 45 7.2 30 -1.1 56 56 SSE 3 6 30.22 1023 10 16.0934 N/A
9:51 am 09:51 Sunny 52 11.1 32 undefined 47 47 N N/A 30.22 1024 10 16.0934 N/A
10:51 am 10:51 Sunny 57 13.9 31 -0.6 37 37 SW 3 6 30.2 1023 10 16.0934 N/A
11:51 am 11:51 Sunny 62 16.7 26 -3.3 25 25 SSE 5 7 30.15 1021 10 16.0934 N/A
12:51 pm 12:51 Sunny 65 18.3 22 -5.6 19 19 S 5 7 30.11 1020 10 16.0934 N/A
1:51 pm 13:51 Sunny 68 20 20 -6.7 16 16 S 6 9 30.07 1018 10 16.0934 N/A
2:51 pm 14:51 Sunny 69 20.6 13 -10.6 11 11 S 5 7 30.06 1018 10 16.0934 N/A
3:51 pm 15:51 Sunny 69 20.6 10 -12.2 10 10 SSE 6 9 30.06 1018 10 16.0934 N/A
4:51 pm 16:51 Sunny 68 20 14 -10 12 12 N N/A 30.05 1018 10 16.0934 N/A
5:51 pm 17:51 Clear 58 14.4 14 -10 18 18 N N/A 30.08 1019 10 16.0934 N/A
6:51 pm 18:51 Clear 51 10.6 16 -8.9 25 25 E 5 7 30.11 1020 10 16.0934 N/A
7:51 pm 19:51 Clear 51 10.6 16 -8.9 25 25 N N/A 30.12 1020 10 16.0934 N/A
8:51 pm 20:51 Clear 43 6.1 17 -8.3 35 35 E 7 11 30.14 1021 10 16.0934 N/A
9:51 pm 21:51 Clear 46 7.8 20 -6.7 35 35 SE 7 11 30.14 1021 10 16.0934 N/A
10:51 pm 22:51 Clear 53 11.7 17 -8.3 24 24 ESE 9 15 30.14 1021 10 16.0934 N/A
11:51 pm 23:51 Clear 48 8.9 18 -7.8 30 30 SSE 10 17 30.16 1021 10 16.0934 N/A

Powered by AerisWeather